STARLINK-3192 (49767 NORAD) Tracking and Keplerian Element Data

This shows tracking and keplerian element data for the satellite.

Feedback or suggestion? Click here.




ElementValue
Catalog49767
NameSTARLINK-3192
Epoch Orbit2713
Epoch Day140.91667824
Epoch Year2022
RAAN253.5648
Inclination53.2195
Eccentricity0.0002005
Argument of Perigee38.1031
Mean Anonmoly284.9438
Mean Motion15.08848586
Decay Rate-6.581E-05
L11 49767U 21115AV 22140.91667824 -.00006581 00000+0 -39563-3 0 9995
L22 49767 53.2195 253.5648 0002005 38.1031 284.9438 15.08848586 27130

Live tracking and technical data element details for STARLINK-3192 (NORAD 49767). STARLINK-3192 can be tracked NOW for your location showing map with azimuth and elevation plus other details from your city location.

Track the satellite on the map from your city or location and see movement details for azimuth, elevation, latitude, longitude, range, height, and movement on the map or in text.







IsCatalogInMostPopularTable: catalog: 49767, numindb: 24
Update: records affected: 1



GetName: 49767 STARLINK-3192

Hit Count: updated at: Mon, 23 May 2022 21:30:05 GMT